Taylorville, IL

6:42 AM CST on December 08, 2016 (GMT -0600)
Taylorville Municipal

Weather History for KTAZ - February, 2013

Change the Weather History Date:

Friday, February 22, 2013

  Actual Average (KSPI) Record (KSPI)
Temperature  
Mean Temperature 30 °F 34 °F  
Max Temperature 35 °F 42 °F 71 °F (1922)
Min Temperature 23 °F 25 °F -7 °F (1963)
Degree Days  
Heating Degree Days 36 31  
Month to date heating degree days 765  
Since 1 July heating degree days 4091  
Cooling Degree Days 0 0  
Month to date cooling degree days 0  
Year to date cooling degree days 0  
Moisture  
Dew Point 27 °F    
Average Humidity 88    
Maximum Humidity 100    
Minimum Humidity 74    
Precipitation  
Precipitation 0.16 in 0.07 in 2.37 in (1990)
Month to date precipitation 1.36  
Year to date precipitation 3.18  
Snow  
Snow 0.00 in 0.20 in 2.20 in (2008)
Month to date snowfall 4.5  
Since 1 July snowfall 17.1  
Snow Depth -    
Sea Level Pressure  
Sea Level Pressure 29.90 in    
Wind  
Wind Speed 8 mph (SW)    
Max Wind Speed 17 mph    
Max Gust Speed 24 mph    
Visibility 8 miles    
Events Rain , Snow , Thunderstorm    
T = Trace of Precipitation, MM = Missing Value Source: NWS Daily Summary

Daily Weather History Graph

Daily Weather History Graph

Search for Another Location

Airport or City:

Trip Planner

Search our weather history database for the weather conditions in past years. The results will help you decide how hot, cold, wet, or windy it might be!

Date:

Astronomy

Feb. 22, 2013 Rise Set
Actual Time 6:39 AM CST 5:42 PM CST
Civil Twilight 6:12 AM CST 6:09 PM CST
Nautical Twilight 5:41 AM CST 6:40 PM CST
Astronomical Twilight 5:10 AM CST 7:11 PM CST
Moon 2:54 PM CST (2/22) 4:24 AM CST (2/22)
Length of Visible Light 11h 56m
Length of Day
11h 02m
Waxing Gibbous, 90% of the Moon is Illuminated
Feb 22
Waxing Gibbous
Feb 25
Full
Mar 4
Last Quarter
Mar 11
New
Mar 19
First Quarter

Hourly Weather History & Observations

Time (CST) Temp. Windchill Dew Point Humidity Pressure Visibility Wind Dir Wind Speed Gust Speed Precip Events Conditions
12:15 AM 30.2 °F 26.7 °F 30.2 °F 100% 29.83 in 2.0 mi SE 3.5 mph - N/A   Light Freezing Rain
12:35 AM 30.2 °F 25.4 °F 30.2 °F 100% 29.82 in 2.5 mi SE 4.6 mph - N/A   Overcast
12:55 AM 30.2 °F 25.4 °F 30.2 °F 100% 29.83 in 2.5 mi SSE 4.6 mph - N/A Rain Light Freezing Rain
1:15 AM 30.2 °F 26.7 °F 30.2 °F 100% 29.83 in 2.0 mi SSE 3.5 mph - N/A   Light Freezing Rain
1:35 AM 30.2 °F - 30.2 °F 100% 29.82 in 2.0 mi Calm Calm - N/A Snow Light Snow
1:55 AM 30.2 °F 26.7 °F 30.2 °F 100% 29.82 in 2.5 mi SSE 3.5 mph - N/A   Light Freezing Rain
2:15 AM 30.2 °F - 30.2 °F 100% 29.81 in 2.5 mi Calm Calm - N/A Snow , Thunderstorm Light Thunderstorms and Snow
2:35 AM 30.2 °F - 30.2 °F 100% 29.80 in 2.5 mi Calm Calm - N/A   Overcast
2:55 AM 30.2 °F 26.7 °F 30.2 °F 100% 29.80 in 5.0 mi SE 3.5 mph - N/A   Overcast
3:15 AM 30.2 °F 26.7 °F 30.2 °F 100% 29.79 in 3.0 mi SSE 3.5 mph - N/A Snow Light Snow
3:35 AM 30.2 °F 26.7 °F 30.2 °F 100% 29.79 in 4.0 mi SSE 3.5 mph - N/A   Overcast
3:55 AM 30.2 °F 26.7 °F 30.2 °F 100% 29.79 in 5.0 mi South 3.5 mph - N/A   Overcast
4:15 AM 30.2 °F - 30.2 °F 100% 29.79 in 5.0 mi Calm Calm - N/A   Overcast
4:35 AM 30.2 °F - 30.2 °F 100% 29.79 in 7.0 mi Calm Calm - N/A   Overcast
4:55 AM 30.2 °F 26.7 °F 30.2 °F 100% 29.80 in 7.0 mi South 3.5 mph - N/A   Overcast
5:15 AM 30.2 °F 26.7 °F 30.2 °F 100% 29.80 in 7.0 mi South 3.5 mph - N/A   Overcast
5:35 AM 30.2 °F 26.7 °F 30.2 °F 100% 29.80 in 5.0 mi South 3.5 mph - N/A   Overcast
5:55 AM 30.2 °F 25.4 °F 30.2 °F 100% 29.80 in 5.0 mi SSW 4.6 mph - N/A   Overcast
6:35 AM 30.2 °F 24.3 °F 30.2 °F 100% 29.81 in 4.0 mi SSW 5.8 mph - N/A   Overcast
6:55 AM 30.2 °F 24.3 °F 30.2 °F 100% 29.81 in 3.0 mi SSW 5.8 mph - N/A   Overcast
7:15 AM 30.2 °F 23.4 °F 30.2 °F 100% 29.82 in 3.0 mi SSW 6.9 mph - N/A   Overcast
7:35 AM 30.2 °F 23.4 °F 30.2 °F 100% 29.83 in 3.0 mi SSW 6.9 mph - N/A   Overcast
7:55 AM 32.0 °F 24.8 °F 32.0 °F 100% 29.84 in 4.0 mi SSW 8.1 mph - N/A   Overcast
8:15 AM 32.0 °F 24.8 °F 32.0 °F 100% 29.85 in 5.0 mi SSW 8.1 mph - 0.01 in   Mostly Cloudy
8:35 AM 32.0 °F 24.2 °F 32.0 °F 100% 29.85 in 10.0 mi SW 9.2 mph - 0.01 in   Overcast
8:55 AM 33.8 °F 25.8 °F 32.0 °F 93% 29.86 in 10.0 mi SW 10.4 mph - N/A   Overcast
9:15 AM 33.8 °F 25.3 °F 32.0 °F 93% 29.86 in 10.0 mi SW 11.5 mph - 0.01 in   Overcast
9:35 AM 33.8 °F 24.8 °F 32.0 °F 93% 29.87 in 10.0 mi SW 12.7 mph - 0.01 in   Mostly Cloudy
9:55 AM 33.8 °F 23.2 °F 32.0 °F 93% 29.87 in 10.0 mi SW 17.3 mph - 0.01 in   Mostly Cloudy
10:15 AM 33.8 °F 23.9 °F 32.0 °F 93% 29.87 in 10.0 mi SW 15.0 mph - 0.12 in   Overcast
10:35 AM 35.6 °F 25.5 °F 30.2 °F 81% 29.88 in 10.0 mi SW 17.3 mph 23.0 mph 0.13 in   Overcast
10:55 AM 33.8 °F 23.2 °F 30.2 °F 87% 29.89 in 10.0 mi SW 17.3 mph - 0.01 in   Overcast
11:15 AM 33.8 °F 23.5 °F 30.2 °F 87% 29.89 in 10.0 mi SW 16.1 mph - 0.01 in   Overcast
11:35 AM 33.8 °F 24.3 °F 30.2 °F 87% 29.90 in 7.0 mi SW 13.8 mph - 0.01 in   Overcast
11:55 AM 33.8 °F 23.5 °F 30.2 °F 87% 29.90 in 1.0 mi SW 16.1 mph - N/A Snow Light Snow
12:15 PM 32.0 °F 22.5 °F 30.2 °F 93% 29.91 in 2.5 mi SW 12.7 mph - N/A Snow Light Snow
12:35 PM 33.8 °F 23.9 °F 30.2 °F 87% 29.91 in 10.0 mi WSW 15.0 mph - N/A   Overcast
12:55 PM 33.8 °F 23.9 °F 30.2 °F 87% 29.91 in 10.0 mi WSW 15.0 mph - N/A   Overcast
1:15 PM 33.8 °F 23.2 °F 28.4 °F 81% 29.91 in 10.0 mi WSW 17.3 mph 20.7 mph N/A   Mostly Cloudy
1:35 PM 33.8 °F 23.9 °F 28.4 °F 81% 29.91 in 10.0 mi WSW 15.0 mph - N/A   Mostly Cloudy
1:55 PM 33.8 °F 24.8 °F 28.4 °F 81% 29.92 in 10.0 mi WSW 12.7 mph - N/A   Overcast
2:15 PM 32.0 °F 21.2 °F 28.4 °F 87% 29.92 in 10.0 mi WSW 16.1 mph 20.7 mph N/A   Overcast
2:35 PM 32.0 °F 22.5 °F 28.4 °F 87% 29.92 in 10.0 mi WSW 12.7 mph 19.6 mph N/A   Overcast
2:55 PM 32.0 °F 22.1 °F 28.4 °F 87% 29.93 in 10.0 mi WSW 13.8 mph 24.2 mph N/A   Overcast
3:15 PM 30.2 °F 19.8 °F 26.6 °F 86% 29.93 in 10.0 mi WSW 13.8 mph - N/A   Mostly Cloudy
3:35 PM 30.2 °F 18.9 °F 24.8 °F 80% 29.94 in 10.0 mi WSW 16.1 mph 21.9 mph N/A   Overcast
3:55 PM 30.2 °F 18.9 °F 24.8 °F 80% 29.94 in 10.0 mi West 16.1 mph 20.7 mph N/A   Overcast
4:15 PM 30.2 °F 18.5 °F 24.8 °F 80% 29.95 in 10.0 mi WSW 17.3 mph - N/A   Overcast
4:35 PM 30.2 °F 18.5 °F 24.8 °F 80% 29.95 in 10.0 mi West 17.3 mph 21.9 mph N/A   Overcast
4:55 PM 28.4 °F 16.2 °F 21.2 °F 74% 29.96 in 10.0 mi WSW 17.3 mph 24.2 mph N/A   Overcast
5:15 PM 28.4 °F 17.0 °F 21.2 °F 74% 29.97 in 10.0 mi West 15.0 mph - N/A   Overcast
5:35 PM 28.4 °F 17.5 °F 21.2 °F 74% 29.97 in 10.0 mi West 13.8 mph - N/A   Overcast
5:55 PM 28.4 °F 18.5 °F 21.2 °F 74% 29.99 in 10.0 mi West 11.5 mph - N/A   Overcast
6:15 PM 26.6 °F 15.2 °F 21.2 °F 80% 29.99 in 10.0 mi West 13.8 mph 18.4 mph N/A   Overcast
6:35 PM 26.6 °F 16.2 °F 21.2 °F 80% 30.00 in 10.0 mi West 11.5 mph - N/A   Overcast
6:55 PM 26.6 °F 14.7 °F 21.2 °F 80% 30.00 in 10.0 mi West 15.0 mph - N/A   Overcast
7:15 PM 26.6 °F 15.2 °F 21.2 °F 80% 30.01 in 10.0 mi West 13.8 mph 17.3 mph N/A   Overcast
7:35 PM 26.6 °F 16.2 °F 19.4 °F 74% 30.01 in 10.0 mi West 11.5 mph 18.4 mph N/A   Overcast
7:55 PM 26.6 °F 15.2 °F 19.4 °F 74% 30.01 in 10.0 mi West 13.8 mph 19.6 mph N/A   Overcast
8:15 PM 26.6 °F 16.2 °F 19.4 °F 74% 30.02 in 10.0 mi West 11.5 mph 17.3 mph N/A   Overcast
8:35 PM 26.6 °F 17.5 °F 19.4 °F 74% 30.02 in 10.0 mi West 9.2 mph - N/A   Overcast
8:55 PM 26.6 °F 16.8 °F 19.4 °F 74% 30.02 in 10.0 mi West 10.4 mph - N/A   Overcast
9:15 PM 24.8 °F 15.3 °F 19.4 °F 80% 30.02 in 10.0 mi WSW 9.2 mph - N/A   Scattered Clouds
9:35 PM 24.8 °F 15.3 °F 19.4 °F 80% 30.03 in 10.0 mi WSW 9.2 mph - N/A   Mostly Cloudy
9:55 PM 24.8 °F 15.3 °F 19.4 °F 80% 30.03 in 10.0 mi WSW 9.2 mph - N/A   Overcast
10:15 PM 24.8 °F 15.3 °F 19.4 °F 80% 30.03 in 10.0 mi WSW 9.2 mph - N/A   Overcast
10:35 PM 24.8 °F 14.6 °F 19.4 °F 80% 30.03 in 10.0 mi WSW 10.4 mph - N/A   Overcast
10:55 PM 24.8 °F 14.6 °F 19.4 °F 80% 30.02 in 10.0 mi WSW 10.4 mph - N/A   Overcast
11:15 PM 24.8 °F 14.6 °F 17.6 °F 74% 30.02 in 10.0 mi WSW 10.4 mph - N/A   Overcast
11:35 PM 24.8 °F 15.3 °F 17.6 °F 74% 30.02 in 10.0 mi WSW 9.2 mph - N/A   Mostly Cloudy
11:55 PM 23.0 °F 13.1 °F 17.6 °F 80% 30.02 in 10.0 mi WSW 9.2 mph - N/A   Mostly Cloudy